WORLDVIEW 2 DEB, 41742

Orbit data source: Space-Track

WORLDVIEW 2 DEB, 41742 is space debris in SSO originally from a launch on Thu, 08 Oct 2009 UTC launched from the Air Force Western Test Range (AFWTR). Debris objects in space refer to the collection of defunct objects orbiting the Earth. Examples of debris include non-operational satellites, rocket bodies, and fragments generated from explosions, collisions, or faulty payload assembly.

Loading next visibility...
Identifier
41742, 2009-055K
Orbit
SSO
Country
Flag of USUS
Related business
Manufacturer
Ball
Mission
Spacecraft
Bus & Motor
Unknown
Mass
Unknown
Launch date (UTC)
2009-10-08 (17 years ago)
Launch vehicle
Unknown
Launch site
Air Force Western Test Range (AFWTR)
Object type
Payload
Rocket body
Debris
Shape & HBR
Unknown shape, 0.1 m
Radar Cross Section
Small (<0.1 m²)

Expand to show TLE details & history
Last TLE update: 10 hours ago

TLE from 10 hours ago
0 WORLDVIEW 2 DEB
1 41742U 09055K   26126.81931166  .00003227  00000-0  70552-3 0  9995
2 41742  98.3497 220.9007 0006109 342.6032  17.4957 14.58443487516087
Epoch: 2026-05-06T19:39Z
TLE epoch observation values (Epoch: 2026-05-06T19:39:48.527Z)
Latitude
0.00002°
Longitude
61.27417°
Altitude
697.059 km
Speed
7.51 km/s
True Right ascension
14h 43m 36s
True Declination
0° 00' 00"
Sunlit
Object was in full shadow at epoch
Visualization orbit readout
Latitude
Unknown
Longitude
Unknown
Altitude
Unknown
Speed
Unknown
Apparent Right ascension
Unknown
Apparent Declination
Unknown
Sunlit
N/A
Visualization observer readout
Local Sidereal Time
13:15:04
Azimuth
Unknown
Elevation
Unknown
Doppler factor
Unknown
Orbital elements
Apogee altitude
699.616 km
Perigee altitude
690.973 km
Semi-major axis
7,073.432 km
Eccentricity
0.00061
Inclination
98.3497°
RAAN
220.9007°
Arg. of periapsis
342.6032°
True anomaly
17.51676°
Mean anomaly
17.4957°
Eccentric anomaly
17.50623°
Mean motion
3.64836 °/min
Orbital period
98.67 mins
BSTAR
0.00070552
Loading maneuver chart data...
Computing Atmospheric mass density...

Documentation

Showing up to 5 results
|